Other Surface Observations
Issued by NWS

Current Version | Previous Version | Text Only | Print | Product List | Glossary On
Versions: 1 2 3 4 5 6 7 8 9 10 11 12 13 14 15 16 17 18 19 20 21 22 23 24 25 26 27 28 29 30 31 32 33 34 35 36 37 38 39 40 41 42 43 44 45 46 47 48 49 50
000
SXUS52 KTAE 161718
OSOTAE
OSOTAE
North Florida/South Alabama/Southwest Georgia Weather Roundup
National Weather Service Tallahassee Florida
100 PM EDT MON JUL 16 2018

Note: "fair" indicates few or no clouds below 12,000 feet with no
significant weather and/or obstructions to visibility.

!FLZ017-115-028-034-025-161800
...North Florida...

CITY           SKY/WX    TMP DP  RH WIND       PRES   REMARKS
TALLAHASSEE    TSTM      78  72  81 NE6       30.07R
APALACHICOLA   FAIR      89  78  70 S10       30.05F HX 103
PERRY          FAIR      86  76  72 E3        30.08F HX  96
CROSS CITY     FAIR      89  77  69 S8        30.08S HX 101
JACKSONVILLE   PTSUNNY   90  75  61 W3        30.05F HX 100
$$

!FLZ112-006-005-002-011-161800
...Florida Panhandle...

CITY           SKY/WX    TMP DP  RH WIND       PRES   REMARKS
MARIANNA       PTSUNNY   88  77  69 SW6       30.03F HX 100
BONIFAY        NOT AVBL
PANAMA CITY NW FAIR      89  74  60 S7        30.03F HX  98
TYNDALL AFB    MOSUNNY   88  76  67 S9        30.05F HX  99
TYND DRONE APT FAIR      89  76  65 S10       30.04F HX 100
DE FUNIAK SPR  FAIR      88  72  58 NW7       30.06F HX  94
EGLIN AFB      PTSUNNY   89  74  60 SE7       30.04F HX  98
DESTIN         FAIR      89  76  65 VRB7      30.04F HX 100
HURLBURT       MOSUNNY   90  77  64 S10       30.03F HX 102
CRESTVIEW      FAIR      91  72  53 NE5       30.06F HX  98
PENSACOLA      FAIR      91  73  55 N7        30.05R HX  99
$$

!ALZ063-066-161800
...South Alabama...

CITY           SKY/WX    TMP DP  RH WIND       PRES   REMARKS
DOTHAN         FAIR      87  71  58 VRB3      30.09F HX  93
OZARK CAIRNS   PTSUNNY   85  74  69 SW3       30.06F HX  93
FT RUCKER HELI PTSUNNY   86  75  70 SW6       30.06S HX  95
RUCKER HELI 3  FAIR      85  75  70 W5        30.06F HX  94
RUCKER HELI 2  FAIR      88  73  62 W7        30.05F HX  96
FLORALA APT    FAIR      86  71  60 CALM      30.08F HX  91
ANDALUSIA      FAIR      90  70  51 NW5       30.07F HX  95
TROY           FAIR      84  73  69 NW8       30.08S HX  90
EUFALA         FAIR      88  74  63 SW3       30.06  HX  96
MOBILE         PTSUNNY   90  78  68 N9        30.06S HX 104
$$

!GAZ120>161-161800
...Southwest and South Central Georgia...

CITY           SKY/WX    TMP DP  RH WIND       PRES   REMARKS
THOMASVILLE    PTSUNNY   86  77  74 S7        30.07F HX  97
BAINBRIDGE     FAIR      88  75  66 SW3       30.05F HX  97
MOODY AFB      LGT RAIN  90  75  62 SW8       30.05F HX 100
VALDOSTA       FAIR      89  75  63 VRB3      30.06F HX  99
MOULTRIE       FAIR      88  75  66 SW6       30.07F HX  97
BLAKELY        FAIR      86  73  66 SW3       30.05F HX  93
ALBANY         FAIR      89  76  65 W9        30.07F HX 100
TIFTON         FAIR      88  75  65 SW8       30.06  HX  97
FITZGERALD     FAIR     N/A N/A N/A SW6       30.09S
CORDELE        FAIR      86  74  68 SW7       30.08S HX  93
AMERICUS       CLOUDY    84  66  54 W6        30.08F
HOMERVILLE     PTSUNNY   88  73  62 CALM      30.07S HX  96
$$

!GMZ750-755-770-775-161800
...Coastal and Buoy Obs...

STATION/POSITION TIME  TEMP    WIND        PRES    VSBY  WAVE
                       AIR SEA DIR/SP/G                  HT/PER
                 (UTC) (F)     (DEG/KT/KT) (MB)    (MI)  (FT/S)
KEATON BEACH     1700   85     230/  3/  4 1018.8F
CEDAR KEY        1700   85     250/  8/ 13 1018.9F
C TOWER          1700   78     170/  6/  8 1018.9R
APALACHICOLA BUO NOT AVBL
PANAMA CITY BUOY 1650   84 87  200/  8/ 10 1018.2R
MOBILE BUOY      1700      86   70/  4/  6 1019.5
ORANGE BCH AL BU 1700   85     150/  4/  6 1018.6
$$




USA.gov is the U.S. government's official web portal to all federal, state and local government web resources and services.